Location: Unspecified
(42.1900°N, 71.3291°W)
Time: 09:49:40
(UTC-04:00)

Cosmos 2058 - Visible Passes

Search period start: 21 June 2018 00:00
Search period end: 01 July 2018 00:00
Orbit: 562 x 585 km, 82.5° (Epoch: 20 June)

Date Brightness Start Highest point End Pass type
(mag) Time Alt. Az. Time Alt. Az. Time Alt. Az.
21 Jun 2.8 00:08:55 83° NNW 00:08:55 83° NNW 00:12:56 10° N visible
22 Jun 3.1 00:11:55 65° W 00:11:56 65° W 00:16:04 10° N visible
22 Jun 5.0 22:38:43 13° E 22:38:43 13° E 22:40:36 10° ENE visible
23 Jun 3.5 00:14:55 47° W 00:15:07 47° WNW 00:19:08 10° N visible
23 Jun 4.7 22:41:41 17° E 22:41:41 17° E 22:44:25 10° NE visible
24 Jun 4.0 00:17:53 35° W 00:18:19 36° WNW 00:22:08 10° N visible
24 Jun 4.3 22:44:39 22° E 22:44:44 22° E 22:47:59 10° NE visible
25 Jun 4.4 00:20:50 26° W 00:21:31 27° WNW 00:25:05 10° NNW visible
25 Jun 3.9 22:47:35 29° E 22:47:49 29° E 22:51:25 10° NNE visible
26 Jun 4.8 00:23:47 19° W 00:24:45 21° WNW 00:27:56 10° NNW visible
26 Jun 3.5 22:50:30 38° ESE 22:50:55 39° E 22:54:46 10° NNE visible
27 Jun 5.2 00:26:41 14° W 00:28:00 16° WNW 00:30:39 10° NNW visible
27 Jun 3.1 22:53:24 47° SE 22:54:01 53° E 22:58:02 10° NNE visible
28 Jun 5.5 00:29:35 10° W 00:31:17 13° WNW 00:33:05 10° NW visible
28 Jun 2.8 22:56:16 52° SSE 22:57:08 72° E 23:01:15 10° NNE visible
29 Jun 2.8 22:59:08 47° SSW 23:00:17 84° W 23:04:25 10° N visible
30 Jun 3.2 23:01:57 36° SSW 23:03:26 62° W 23:07:31 10° N visible
